This is the latest recevied weather packets stored in our database for station/object WX0ABE-13. If no packets are shown the sender has not sent any weather packets the latest 10 day(s).
| Time | Temp. | Humidity | Pressure | Rain* | Wind** | Luminosity | Snow |
|---|---|---|---|---|---|---|---|
| 1787753257 | 18.89° C | 85% | 1024 hPa | 0 mm | - | 44 W/m² | - |
| 1787752952 | 18.33° C | 85% | 1024.1 hPa | 0 mm | - | 54 W/m² | - |
| 1787752651 | 18.33° C | 85% | 1024.1 hPa | 0 mm | - | 58 W/m² | - |
| 1787752347 | 17.78° C | 85% | 1024.2 hPa | 0 mm | - | 64 W/m² | - |
| 1787752046 | 17.78° C | 85% | 1024 hPa | 0 mm | - | 59 W/m² | - |
| 1787751741 | 18.33° C | 84% | 1023.9 hPa | 0 mm | - | 52 W/m² | - |
| 1787751437 | 17.78° C | 83% | 1023.9 hPa | 0 mm | - | 47 W/m² | - |
| 1787751132 | 17.78° C | 82% | 1023.3 hPa | 0 mm | - | 36 W/m² | - |
| 1787750827 | 17.78° C | 86% | 1023.8 hPa | 0 mm | - | 29 W/m² | - |
| 1787750522 | 17.78° C | 85% | 1022.7 hPa | 0 mm | - | 17 W/m² | - |
| 1787750216 | 17.78° C | 85% | 1022.2 hPa | 0 mm | - | 9 W/m² | - |
| 1787749912 | 17.22° C | 89% | 1022.8 hPa | 0 mm | - | 5 W/m² | - |
| 1787749608 | 17.22° C | 93% | 1023.8 hPa | 0 mm | - | 4 W/m² | - |
| 1787749304 | 16.67° C | 93% | 1024.7 hPa | 0 mm | - | 3 W/m² | - |
| 1787748998 | 16.67° C | 92% | 1024.8 hPa | 0 mm | - | 2 W/m² | - |
| 1787748692 | 16.67° C | 91% | 1024.7 hPa | 0 mm | - | 1 W/m² | - |
| 1787748387 | 17.22° C | 91% | 1024.1 hPa | 0 mm | - | 1 W/m² | - |
| 1787748084 | 17.22° C | 91% | 1024.6 hPa | 1.27 mm | - | 1 W/m² | - |
| 1787747783 | 17.22° C | 90% | 1024.7 hPa | 1.27 mm | - | 1 W/m² | - |
| 1787747479 | 17.22° C | 90% | 1024.9 hPa | 0 mm | - | 1 W/m² | - |
| 1787747179 | 16.67° C | 89% | 1024.7 hPa | 0 mm | - | 1 W/m² | - |
| 1787746876 | 17.22° C | 88% | 1024.9 hPa | 0 mm | - | 1 W/m² | - |
| 1787746575 | 17.22° C | 87% | 1024.8 hPa | 0 mm | - | 0 W/m² | - |
| 1787746269 | 17.22° C | 85% | 1024.5 hPa | 0 mm | - | 0 W/m² | - |
| 1787745968 | 17.78° C | 84% | 1024.4 hPa | 0 mm | - | 0 W/m² | - |
* Rain latest hour (hover to see other rain measurements)
** Current wind speed in m/s (hover to see current wind gust speed)